2025-234A

Last updated on Mon Oct 20 2025 00:02:08 GMT+0000 (Coordinated Universal Time)

1 66053U 25234A 25292.45437684 .00003695 00000+0 16795-3 0 9990 2 66053 97.4635 358.1268 0014317 287.1156 72.8511 15.21295861 54
UTC large
Height (km)
Speed (km/s)
/
Latitude / Longitude
Inclination (degrees)
Orbital Period (minutes)
Azimuth
Elevation
Range (km)
Doppler Factor

Next 0 passes for location: London (51.5072 / 0.1276)

Sorry there are no passes over London.